This demonstration page uses our WeatherBlox Daily Observations layout. Learn more.

Left ArrowRight Arrow

Hourly Observations for June 9, 2019

Temp ( °F °C ) Dew Point ( °F °C ) Humidity (%) Winds ( mph kmh ) Pressure ( in mb ) Visibility ( mi km ) Precip ( " mm )
12:56 am 00:56 Mostly Cloudy 75 24 57 14 54 54 NNW 7 11 29.88 1012 10 16 0.00 0.00
1:56 am 01:56 Partly Cloudy 73 23 57 14 57 57 N 7 11 29.88 1012 10 16 0.00 0.00
2:56 am 02:56 Partly Cloudy 73 23 59 15 61 61 Calm 29.87 1012 10 16 0.00 0.00
3:56 am 03:56 Mostly Cloudy 72 22 59 15 65 65 NW 14 22 29.88 1012 10 16 0.00 0.00
4:56 am 04:56 Mostly Cloudy 68 20 59 15 73 73 NNW 23 37 29.92 1013 10 16 0.00 0.00
5:56 am 05:56 Cloudy 64 18 59 15 83 83 NW 20 31 29.95 1014 10 16 0.00 0.00
6:56 am 06:56 Cloudy 63 17 55 13 77 77 NNW 18 30 29.99 1016 10 16 0.00 0.00
7:37 am 07:37 Mostly Cloudy 63 17 54 12 73 73 N 17 28 30.02 1017 10 16 0.00 0.00
7:56 am 07:56 Mostly Cloudy 63 17 54 12 73 73 N 18 30 30.02 1017 10 16 0.00 0.00
8:56 am 08:56 Cloudy 63 17 54 12 73 73 NW 12 19 30.06 1018 10 16 0.00 0.00
9:50 am 09:50 Cloudy 63 17 52 11 68 68 N 20 31 30.07 1018 10 16 0.00 0.00
9:56 am 09:56 Mostly Cloudy 63 17 52 11 68 68 N 15 24 30.07 1018 10 16 0.00 0.00
10:56 am 10:56 Mostly Cloudy 63 17 50 10 64 64 NNW 14 22 30.09 1019 10 16 0.00 0.00
11:56 am 11:56 Mostly Cloudy 66 19 46 8 49 49 N 18 30 30.10 1019 10 16 0.00 0.00
12:56 pm 12:56 Mostly Cloudy 68 20 46 8 46 46 NNW 20 31 30.11 1020 10 16 0.00 0.00
1:56 pm 13:56 Mostly Cloudy 70 21 46 8 43 43 N 13 20 30.12 1020 10 16 0.00 0.00
2:56 pm 14:56 Mostly Cloudy 72 22 46 8 41 41 NNW 13 20 30.13 1020 10 16 0.00 0.00
3:56 pm 15:56 Mostly Cloudy 72 22 46 8 41 41 NNW 18 30 30.14 1021 10 16 0.00 0.00
4:56 pm 16:56 Mostly Cloudy 73 23 46 8 38 38 N 15 24 30.15 1021 10 16 0.00 0.00
5:56 pm 17:56 Mostly Sunny 72 22 43 6 36 36 N 15 24 30.16 1022 10 16 0.00 0.00
6:26 pm 18:26 Mostly Sunny 72 22 44 6.9 38 38 NNW 13 20 30.17 1022 10 16 0.00 0.00
6:56 pm 18:56 Sunny 72 22 41 5 33 33 N 14 22 30.18 1022 10 16 0.00 0.00
7:56 pm 19:56 Mostly Sunny 70 21 41 5 35 35 N 13 20 30.19 1022 10 16 0.00 0.00
8:56 pm 20:56 Clear 68 20 41 5 38 38 NNW 12 19 30.20 1023 2 3 0.00 0.00
9:56 pm 21:56 Clear 66 19 41 5 40 40 NNW 9 15 30.22 1023 10 16 0.00 0.00
10:56 pm 22:56 Clear 63 17 43 6 49 49 WNW 7 11 30.24 1024 10 16 0.00 0.00
11:56 pm 23:56 Partly Cloudy 61 16 43 6 52 52 NW 7 11 30.25 1024 10 16 0.00 0.00

Powered by AerisWeather